Regional Weather Roundup
Issued by NWS

Home | Current Version | Previous Version | Graphics & Text | Print | Product List | Glossary On
Versions: 1 2 3 4 5 6 7 8 9 10 11 12 13 14 15 16 17 18 19 20 21 22 23 24 25 26 27 28 29 30 31 32 33 34 35 36 37 38 39 40 41 42 43 44 45 46 47 48 49 50
000
ASUS43 KMKX 051811
RWRWI

WISCONSIN REGIONAL WEATHER ROUNDUP
NATIONAL WEATHER SERVICE MILWAUKEE/SULLIVAN WI
100 PM CDT THU MAY 05 2016

NOTE: "FAIR" INDICATES FEW OR NO CLOUDS BELOW 12,000 FEET WITH NO
SIGNIFICANT WEATHER AND/OR OBSTRUCTIONS TO VISIBILITY.

WIZ001-002-006>008-014>016-023>028-051900-
NORTHWEST WISCONSIN

CITY           SKY/WX    TMP DP  RH WIND       PRES   REMARKS
SUPERIOR ARPT  SUNNY     68  37  31 SW13G23   29.93F
6HR MIN TEMP:  38; 6HR MAX TEMP:  68;

ASHLAND        MOSUNNY   70  35  27 W9G17     29.94F
6HR MIN TEMP:  33; 6HR MAX TEMP:  70;

HAYWARD        SUNNY     65  30  27 SW15      29.97F
6HR MIN TEMP:  33; 6HR MAX TEMP:  65;

SIREN          RAIN      58  39  49 S6        29.99F
6HR MIN TEMP:  40; 6HR MAX TEMP:  61; 6HR PCP:  0.03;

CUMBERLAND     SUNNY     61  30  31 SW13      30.01F
RICE LAKE      SUNNY     64  28  26 SW8       30.03F
CHETEK         MOSUNNY   64  36  34 SW8       30.02F
6HR MIN TEMP:  35; 6HR MAX TEMP:  65;

LADYSMITH      SUNNY     63  35  35 SW6       30.02F
6HR MIN TEMP:  35; 6HR MAX TEMP:  63;

EAU CLAIRE     SUNNY     63  34  33 W7        30.04
MENOMONIE      CLOUDY    64  32  29 W8        30.03F
6HR MIN TEMP:  40; 6HR MAX TEMP:  67;

NEW RICHMOND   MOSUNNY   62  33  33 SW9G17    30.02F
6HR MIN TEMP:  41; 6HR MAX TEMP:  62;

OSCEOLA        CLOUDY    65  33  30 SW12      30.04F
6HR MIN TEMP:  43; 6HR MAX TEMP:  65;

$$

WIZ003>005-009-010-017-018-051900-
NORTH CENTRAL WISCONSIN

CITY           SKY/WX    TMP DP  RH WIND       PRES   REMARKS
MANITOWISH WTR SUNNY     62  30  30 W10G17    29.98S
6HR MIN TEMP:  31; 6HR MAX TEMP:  62;

ARBOR VITAE    SUNNY     62  25  24 W7        29.98F
6HR MIN TEMP:  33; 6HR MAX TEMP:  62;

WOODRUFF       SUNNY     62  25  24 W7        29.98F
6HR MIN TEMP:  33; 6HR MAX TEMP:  62;

RHINELANDER    SUNNY     62  24  23 VRB3      29.99F
6HR MIN TEMP:  34; 6HR MAX TEMP:  63;

EAGLE RIVER    SUNNY     61  20  21 CALM      29.97F
LAND O LAKES   SUNNY     63  22  20 W7        29.97F
6HR MIN TEMP:  32; 6HR MAX TEMP:  63;

PHILLIPS       MOSUNNY   60  32  35 SW8       29.99F
6HR MIN TEMP:  32; 6HR MAX TEMP:  60;

TOMAHAWK       SUNNY     62  27  26 NW5       29.99F
MEDFORD        SUNNY     58  35  41 W6        30.01F
6HR MIN TEMP:  34; 6HR MAX TEMP:  59;

MERRILL        SUNNY     61  32  33 S6        30.00F
$$

WIZ029-030-035-036-043>047-051900-
CENTRAL WISCONSIN

CITY           SKY/WX    TMP DP  RH WIND       PRES   REMARKS
WAUSAU         SUNNY     63  31  30 W7        29.99F
6HR MIN TEMP:  40; 6HR MAX TEMP:  64;

MOSINEE        SUNNY     61  34  36 NW6       30.03F
MARSHFIELD     SUNNY     61  29  29 VRB7      30.02F
6HR MIN TEMP:  40; 6HR MAX TEMP:  62;

STEVENS POINT  SUNNY     58  29  32 SW5       30.02F
6HR MIN TEMP:  35; 6HR MAX TEMP:  59;

WAUPACA        SUNNY     63  37  37 CALM      30.02F
6HR MIN TEMP:  40; 6HR MAX TEMP:  63;

WAUTOMA        SUNNY     60  36  40 VRB3      30.02F
6HR MIN TEMP:  39; 6HR MAX TEMP:  61;

WISC RAPIDS    SUNNY     62  27  26 VRB5      30.03F
6HR MIN TEMP:  39; 6HR MAX TEMP:  63;

CAMP DOUGLAS   MOSUNNY   63  37  39 VRB7      30.03F
$$

WIZ011>013-019>022-031-037>040-048>050-051900-
NORTHEAST WISCONSIN

CITY           SKY/WX    TMP DP  RH WIND       PRES   REMARKS
ANTIGO         SUNNY     59  32  36 CALM      30.00F
6HR MIN TEMP:  35; 6HR MAX TEMP:  59;

SHAWANO        SUNNY     61  35  38 S3        30.00F
OCONTO         SUNNY     54  39  56 SE8       30.01F
6HR MIN TEMP:  37; 6HR MAX TEMP:  55;

STURGEON BAY   SUNNY     52  36  54 W7        30.04F
6HR MIN TEMP:  39; 6HR MAX TEMP:  52;

GREEN BAY      SUNNY     58  40  51 NW7       30.02F
6HR MIN TEMP:  39; 6HR MAX TEMP:  59;

MANITOWOC      SUNNY     54  40  59 SE12      30.02F
6HR MIN TEMP:  40; 6HR MAX TEMP:  57;

APPLETON       SUNNY     55  36  47 VRB3      30.01F
CLINTONVILLE   SUNNY     59  34  38 SW3       30.01F
OSHKOSH        SUNNY     58  38  47 N8        30.02F
6HR MIN TEMP:  39; 6HR MAX TEMP:  58;

$$

WIZ032>034-041-042-053>061-051900-
SOUTHWEST WISCONSIN

CITY           SKY/WX    TMP DP  RH WIND       PRES   REMARKS
LA CROSSE      SUNNY     62  33  33 NW5       30.05F
6HR MIN TEMP:  42; 6HR MAX TEMP:  63;

SPARTA         SUNNY     62  31  30 CALM      30.05F
6HR MIN TEMP:  32; 6HR MAX TEMP:  63;

VIROQUA        SUNNY     61  33  35 CALM      30.05F
6HR MIN TEMP:  39; 6HR MAX TEMP:  61;

BOSCOBEL       SUNNY     65  36  34 VRB3      30.04F
6HR MIN TEMP:  39; 6HR MAX TEMP:  65;

PRAIRIE DU CHI SUNNY     62  30  30 NW7       30.05F
6HR MIN TEMP:  38; 6HR MAX TEMP:  62;

PLATTEVILLE    SUNNY     60  38  45 NW8       30.04F
6HR MIN TEMP:  41; 6HR MAX TEMP:  60;

$$

WIZ056-057-062-063-064-067-068-051900-
SOUTH CENTRAL WISCONSIN

CITY           SKY/WX    TMP DP  RH WIND       PRES   REMARKS
REEDSBURG      SUNNY     60  37  42 NW8       30.03F
6HR MIN TEMP:  39; 6HR MAX TEMP:  60;

BARABOO/DELLS  SUNNY     61  33  34 NE3       30.03F
6HR MIN TEMP:  39; 6HR MAX TEMP:  61;

LONE ROCK      SUNNY     62  38  40 CALM      30.04F
6HR MIN TEMP:  39; 6HR MAX TEMP:  62;

MINERAL POINT  SUNNY     61  34  36 N7        30.04F
MADISON        SUNNY     60  36  40 VRB5      30.02F
6HR MIN TEMP:  38; 6HR MAX TEMP:  61;

MIDDLETON      SUNNY     60  36  40 N7        30.03F
6HR MIN TEMP:  39; 6HR MAX TEMP:  60;

WATERTOWN      SUNNY     58  40  51 N6        30.02F
6HR MIN TEMP:  38; 6HR MAX TEMP:  59;

MONROE         SUNNY     59  37  44 N7        30.03F
JANESVILLE     SUNNY     61  37  41 NE7       30.02F
$$

WIZ051-052-058>065-066-070>072-051900-
SOUTHEAST WISCONSIN

CITY           SKY/WX    TMP DP  RH WIND       PRES   REMARKS
MILWAUKEE      SUNNY     53  39  59 NE12      30.03F
6HR MIN TEMP:  42; 6HR MAX TEMP:  54;

WAUKESHA       SUNNY     57  37  47 W7        30.02F
MILWAUKEE/TIMM SUNNY     57  37  47 NE7       30.03S
RACINE         SUNNY     54  39  57 N15       30.03F
6HR MIN TEMP:  42; 6HR MAX TEMP:  54;

BURLINGTON     SUNNY     58  37  45 N7        30.01F
6HR MIN TEMP:  37; 6HR MAX TEMP:  58;

KENOSHA        SUNNY     59  41  51 N10G16    30.01F
6HR MIN TEMP:  41; 6HR MAX TEMP:  59;

FOND DU LAC    SUNNY     57  39  51 CALM      30.02F
6HR MIN TEMP:  39; 6HR MAX TEMP:  57;

SHEBOYGAN      SUNNY     56  43  61 E9        30.01F
6HR MIN TEMP:  38; 6HR MAX TEMP:  56;

WEST BEND      SUNNY     59  37  44 W5        30.01F
JUNEAU         SUNNY     56  38  49 N9        30.03F
6HR MIN TEMP:  37; 6HR MAX TEMP:  57;

$$

LSZ147-162-051900-
LAKE SUPERIOR

STATION/POSITION TIME  TEMP    WIND        PRES    WAVE
                       AIR SEA DIR/SP/G            HT/PER
                 (UTC) (F)     (DEG/KT/KT) (MB)    (FT/S)
W MID LAKE BUOY  1750   41 37  200/  8/ 10 1014.5F   0
DEVILS ISLAND    1700   49      CALM  /  2 1014.6F
PORT WING        1620   43     300/  7/  9 1015.2S
SAXON HARBOR     1700   64     180/  6/ 12 1014.2F
$$

LMZ867-665-643>646-051900-
LAKE MICHIGAN

STATION/POSITION TIME  TEMP    WIND        PRES    WAVE
                       AIR SEA DIR/SP/G            HT/PER
                 (UTC) (F)     (DEG/KT/KT) (MB)    (FT/S)
CHAMBERS ISLAND  1700   45      70/  5/  7 1016.9F
N MID LAKE BUOY  1750   39 39  250/  4/  6 1016.6F   1
NORTHPORT PIER   1700   42     330/  3/  5 1016.9F
ALGOMA LAKESHORE 1715          100/  8/  9   N/A
KEWAUNEE LAKESHO 1700   46      50/  4/  7 1016.3F
SHEBOYGAN LAKESH 1800   42      50/ 10/ 11 1017.4F
PORT WASHINGTON  1700   47      50C1F1C2F2C3F3C4F4C5F5C6F6C7F7C8M1C9M2Ca!



USA.gov is the U.S. government's official web portal to all federal, state and local government web resources and services.